QPF
0.00 0.00 0.01 0.01 0.01 0.02 0.03 0.02 0.02 0.02 0.01 0.02 0.01 0.01 0.01 0.00 0.01 0.00 0.01 0.01 0.01 0.01 0.02 0.03 0.03 0.03 0.03 0.03 0.03 0.03 0.03 0.03 0.04 0.04 0.04 0.04 0.06 0.06 0.06 0.07 0.07 0.04 0.03
0.00 0.00 0.01 0.01 0.01 0.01 0.01 0.02 0.02 0.01 0.01 0.01 0.01 0.01 0.00 0.00 0.00 0.01 0.01 0.01 0.01 0.01 0.02 0.02 0.03 0.03 0.03 0.02 0.02 0.02 0.03 0.04 0.03 0.04 0.04 0.04 0.06 0.05 0.06 0.07 0.06 0.03 0.03
0.00 0.00 0.00 0.01 0.01 0.01 0.01 0.01 0.01 0.01 0.01 0.01 0.01 0.01 0.01 0.01 0.01 0.01 0.01 0.01 0.02 0.02 0.01 0.01 0.02 0.03 0.03 0.02 0.02 0.02 0.03 0.03 0.04 0.03 0.04 0.05 0.04 0.05 0.05 0.04 0.03 0.02 0.02
0.00 0.00 0.00 0.01 0.01 0.01 0.01 0.01 0.01 0.01 0.01 0.01 0.01 0.01 0.01 0.01 0.02 0.02 0.02 0.01 0.02 0.02 0.01 0.01 0.02 0.02 0.03 0.02 0.01 0.02 0.03 0.02 0.02 0.03 0.04 0.02 0.02 0.03 0.04 0.03 0.03 0.03 0.03
0.00 0.00 0.00 0.00 0.01 0.00 0.00 0.00 0.01 0.00 0.01 0.01 0.01 0.01 0.01 0.02 0.02 0.03 0.02 0.02 0.03 0.02 0.02 0.02 0.02 0.02 0.03 0.02 0.02 0.02 0.01 0.01 0.01 0.01 0.02 0.02 0.03 0.03 0.03 0.03 0.03 0.03 0.03
0.00 0.00 0.00 0.00 0.00 0.00 0.00 0.00 0.01 0.01 0.01 0.01 0.01 0.01 0.01 0.02 0.03 0.02 0.02 0.02 0.03 0.02 0.02 0.02 0.01 0.02 0.02 0.02 0.02 0.02 0.01 0.01 0.01 0.01 0.02 0.03 0.03 0.03 0.03 0.03 0.03 0.02 0.03
0.00 0.00 0.00 0.01 0.01 0.00 0.00 0.00 0.01 0.01 0.01 0.01 0.01 0.01 0.01 0.02 0.03 0.02 0.02 0.02 0.02 0.02 0.02 0.02 0.02 0.01 0.02 0.03 0.03 0.02 0.02 0.01 0.01 0.01 0.02 0.04 0.03 0.02 0.02 0.02 0.03 0.02 0.02
0.00 0.00 0.00 0.01 0.01 0.01 0.01 0.00 0.00 0.01 0.01 0.01 0.01 0.01 0.02 0.02 0.02 0.02 0.02 0.03 0.02 0.02 0.01 0.02 0.02 0.02 0.02 0.03 0.04 0.04 0.02 0.02 0.01 0.01 0.01 0.03 0.02 0.03 0.02 0.02 0.02 0.01 0.02
0.00 0.00 0.01 0.01 0.01 0.01 0.01 0.01 0.01 0.01 0.01 0.01 0.01 0.01 0.02 0.02 0.02 0.02 0.02 0.03 0.02 0.02 0.01 0.01 0.02 0.03 0.03 0.04 0.05 0.03 0.02 0.02 0.01 0.01 0.01 0.03 0.02 0.03 0.02 0.02 0.02 0.02 0.02
0.00 0.01 0.01 0.03 0.03 0.02 0.01 0.02 0.02 0.01 0.01 0.01 0.01 0.01 0.02 0.02 0.02 0.02 0.02 0.02 0.03 0.02 0.02 0.03 0.03 0.03 0.04 0.06 0.05 0.04 0.03 0.02 0.01 0.01 0.02 0.02 0.02 0.02 0.02 0.02 0.02 0.02 0.03
0.01 0.02 0.02 0.02 0.02 0.02 0.02 0.02 0.03 0.02 0.01 0.01 0.02 0.02 0.02 0.04 0.03 0.02 0.01 0.02 0.02 0.02 0.02 0.03 0.04 0.03 0.04 0.04 0.05 0.05 0.03 0.02 0.01 0.01 0.02 0.02 0.02 0.02 0.02 0.02 0.02 0.02 0.03
0.01 0.02 0.04 0.03 0.02 0.02 0.02 0.03 0.04 0.03 0.03 0.02 0.03 0.03 0.04 0.05 0.04 0.01 0.01 0.03 0.03 0.03 0.03 0.03 0.04 0.02 0.03 0.05 0.05 0.05 0.04 0.02 0.01 0.00 0.01 0.01 0.02 0.03 0.03 0.02 0.03 0.02 0.02
0.02 0.02 0.03 0.05 0.03 0.03 0.03 0.03 0.03 0.03 0.04 0.04 0.02 0.03 0.03 0.02 0.02 0.01 0.03 0.05 0.05 0.04 0.05 0.03 0.02 0.02 0.03 0.07 0.07 0.05 0.04 0.03 0.02 0.01 0.01 0.02 0.02 0.05 0.04 0.03 0.03 0.02 0.02
0.03 0.04 0.05 0.05 0.03 0.03 0.03 0.03 0.03 0.03 0.03 0.03 0.02 0.02 0.02 0.01 0.01 0.01 0.03 0.05 0.06 0.06 0.06 0.03 0.03 0.02 0.02 0.02 0.03 0.04 0.03 0.03 0.02 0.03 0.03 0.03 0.04 0.04 0.04 0.02 0.02 0.02 0.03
0.02 0.03 0.06 0.07 0.04 0.04 0.04 0.03 0.02 0.02 0.02 0.02 0.01 0.01 0.01 0.01 0.01 0.01 0.02 0.02 0.03 0.04 0.04 0.05 0.02 0.03 0.02 0.01 0.02 0.03 0.04 0.03 0.02 0.04 0.04 0.04 0.04 0.05 0.05 0.04 0.04 0.04 0.04
0.04 0.05 0.06 0.08 0.09 0.08 0.05 0.04 0.03 0.03 0.03 0.03 0.02 0.01 0.01 0.01 0.01 0.01 0.01 0.02 0.03 0.03 0.05 0.05 0.04 0.04 0.03 0.02 0.02 0.02 0.03 0.03 0.04 0.05 0.05 0.06 0.05 0.05 0.07 0.07 0.06 0.04 0.04
0.04 0.06 0.06 0.09 0.12 0.10 0.06 0.05 0.04 0.04 0.04 0.03 0.03 0.02 0.02 0.02 0.02 0.02 0.03 0.03 0.04 0.05 0.06 0.07 0.07 0.05 0.05 0.04 0.04 0.05 0.07 0.07 0.05 0.05 0.06 0.09 0.07 0.04 0.05 0.06 0.06 0.05 0.06
0.03 0.05 0.08 0.12 0.14 0.09 0.06 0.06 0.06 0.05 0.05 0.03 0.03 0.03 0.03 0.03 0.03 0.04 0.04 0.04 0.04 0.06 0.07 0.07 0.06 0.06 0.06 0.08 0.09 0.09 0.09 0.10 0.07 0.06 0.07 0.07 0.06 0.04 0.04 0.04 0.04 0.04 0.04
0.03 0.04 0.05 0.06 0.09 0.06 0.06 0.07 0.07 0.06 0.06 0.04 0.03 0.03 0.04 0.04 0.04 0.05 0.05 0.05 0.05 0.07 0.07 0.05 0.06 0.05 0.07 0.10 0.08 0.08 0.07 0.07 0.06 0.07 0.06 0.05 0.03 0.03 0.04 0.03 0.02 0.03 0.03
0.04 0.04 0.04 0.03 0.04 0.04 0.06 0.08 0.07 0.07 0.08 0.08 0.07 0.06 0.05 0.05 0.05 0.07 0.06 0.07 0.08 0.08 0.08 0.07 0.08 0.06 0.07 0.08 0.06 0.07 0.06 0.04 0.04 0.05 0.05 0.04 0.04 0.02 0.01 0.02 0.03 0.02 0.02
0.03 0.04 0.05 0.04 0.05 0.05 0.06 0.07 0.07 0.08 0.08 0.07 0.06 0.07 0.09 0.07 0.06 0.07 0.10 0.09 0.09 0.10 0.08 0.07 0.07 0.06 0.06 0.07 0.10 0.08 0.05 0.03 0.04 0.04 0.04 0.06 0.04 0.03 0.03 0.03 0.04 0.06 0.04
0.02 0.03 0.04 0.04 0.04 0.05 0.07 0.10 0.15 0.18 0.17 0.12 0.10 0.11 0.10 0.08 0.07 0.07 0.11 0.11 0.10 0.11 0.10 0.07 0.08 0.08 0.06 0.07 0.08 0.09 0.07 0.05 0.04 0.03 0.04 0.06 0.04 0.04 0.03 0.02 0.03 0.05 0.05
0.02 0.03 0.03 0.03 0.04 0.07 0.10 0.13 0.19 0.22 0.21 0.19 0.16 0.11 0.08 0.08 0.08 0.08 0.09 0.10 0.10 0.08 0.08 0.08 0.08 0.09 0.08 0.06 0.04 0.05 0.04 0.04 0.04 0.04 0.02 0.02 0.03 0.03 0.02 0.02 0.02 0.03 0.04
0.02 0.03 0.03 0.04 0.06 0.10 0.16 0.16 0.17 0.19 0.15 0.15 0.16 0.12 0.11 0.09 0.10 0.10 0.10 0.11 0.10 0.08 0.09 0.08 0.06 0.09 0.11 0.07 0.04 0.03 0.02 0.02 0.04 0.04 0.03 0.01 0.01 0.03 0.03 0.01 0.01 0.04 0.03
0.02 0.02 0.03 0.05 0.07 0.13 0.19 0.22 0.19 0.16 0.13 0.14 0.14 0.13 0.11 0.09 0.09 0.10 0.12 0.13 0.11 0.08 0.09 0.08 0.07 0.07 0.08 0.07 0.05 0.03 0.02 0.02 0.03 0.04 0.04 0.03 0.02 0.01 0.01 0.01 0.01 0.02 0.02
0.02 0.03 0.04 0.07 0.09 0.14 0.23 0.22 0.18 0.14 0.13 0.12 0.12 0.13 0.12 0.10 0.08 0.09 0.10 0.10 0.09 0.07 0.08 0.08 0.08 0.09 0.08 0.07 0.06 0.04 0.03 0.02 0.01 0.03 0.03 0.03 0.03 0.02 0.01 0.01 0.02 0.01 0.01
MSLP
1011.34 1011.49 1011.78 1012.17 1012.59 1012.98 1013.28 1013.45 1013.52 1013.51 1013.50 1013.55 1013.69 1013.94 1014.27 1014.64 1014.98 1015.25 1015.42 1015.50 1015.53 1015.54 1015.59 1015.71 1015.89 1016.13 1016.39 1016.62 1016.79 1016.89 1016.92 1016.92 1016.92 1016.95 1017.04 1017.17 1017.34 1017.52 1017.68 1017.80 1017.89 1017.95 1018.00
1011.05 1011.31 1011.73 1012.25 1012.79 1013.25 1013.59 1013.77 1013.81 1013.77 1013.72 1013.74 1013.87 1014.12 1014.46 1014.84 1015.19 1015.45 1015.61 1015.68 1015.69 1015.69 1015.75 1015.89 1016.12 1016.40 1016.70 1016.96 1017.14 1017.23 1017.24 1017.21 1017.17 1017.18 1017.26 1017.42 1017.62 1017.85 1018.06 1018.24 1018.36 1018.43 1018.48
1010.74 1011.12 1011.65 1012.30 1012.95 1013.51 1013.92 1014.14 1014.20 1014.15 1014.09 1014.09 1014.20 1014.43 1014.76 1015.11 1015.43 1015.66 1015.78 1015.81 1015.80 1015.80 1015.87 1016.04 1016.31 1016.64 1016.97 1017.24 1017.42 1017.49 1017.47 1017.41 1017.35 1017.35 1017.44 1017.62 1017.87 1018.15 1018.41 1018.63 1018.79 1018.88 1018.93
1010.48 1010.94 1011.58 1012.33 1013.09 1013.74 1014.23 1014.52 1014.62 1014.61 1014.56 1014.56 1014.66 1014.87 1015.15 1015.46 1015.72 1015.90 1015.97 1015.96 1015.93 1015.93 1016.02 1016.21 1016.51 1016.87 1017.21 1017.49 1017.66 1017.70 1017.65 1017.56 1017.49 1017.49 1017.60 1017.81 1018.10 1018.43 1018.73 1018.99 1019.17 1019.28 1019.34
1010.30 1010.82 1011.54 1012.36 1013.20 1013.94 1014.50 1014.86 1015.03 1015.06 1015.05 1015.07 1015.16 1015.35 1015.59 1015.84 1016.05 1016.17 1016.19 1016.16 1016.11 1016.12 1016.23 1016.45 1016.77 1017.14 1017.48 1017.74 1017.88 1017.89 1017.81 1017.71 1017.63 1017.65 1017.78 1018.03 1018.35 1018.71 1019.05 1019.32 1019.52 1019.64 1019.70
1010.25 1010.80 1011.54 1012.41 1013.29 1014.07 1014.69 1015.11 1015.33 1015.43 1015.46 1015.51 1015.61 1015.78 1016.00 1016.21 1016.37 1016.45 1016.46 1016.41 1016.38 1016.41 1016.54 1016.79 1017.11 1017.47 1017.79 1018.01 1018.10 1018.08 1017.97 1017.86 1017.79 1017.83 1018.00 1018.28 1018.64 1019.02 1019.37 1019.64 1019.83 1019.94 1020.00
1010.33 1010.88 1011.61 1012.47 1013.34 1014.13 1014.77 1015.21 1015.49 1015.63 1015.71 1015.80 1015.92 1016.10 1016.31 1016.51 1016.65 1016.73 1016.74 1016.72 1016.71 1016.77 1016.93 1017.19 1017.51 1017.84 1018.11 1018.28 1018.33 1018.26 1018.14 1018.02 1017.98 1018.05 1018.26 1018.58 1018.96 1019.35 1019.69 1019.94 1020.10 1020.19 1020.24
1010.55 1011.06 1011.75 1012.54 1013.36 1014.11 1014.72 1015.17 1015.47 1015.65 1015.77 1015.90 1016.06 1016.26 1016.49 1016.70 1016.86 1016.96 1017.00 1017.02 1017.06 1017.16 1017.35 1017.61 1017.91 1018.20 1018.42 1018.53 1018.52 1018.42 1018.29 1018.18 1018.17 1018.29 1018.54 1018.90 1019.30 1019.69 1020.01 1020.23 1020.36 1020.41 1020.44
1010.87 1011.33 1011.94 1012.64 1013.37 1014.03 1014.59 1015.01 1015.30 1015.50 1015.66 1015.83 1016.04 1016.28 1016.53 1016.77 1016.97 1017.11 1017.20 1017.28 1017.37 1017.51 1017.72 1017.97 1018.25 1018.49 1018.65 1018.70 1018.65 1018.53 1018.40 1018.32 1018.34 1018.51 1018.81 1019.21 1019.63 1020.02 1020.32 1020.52 1020.60 1020.62 1020.62
1011.25 1011.66 1012.18 1012.78 1013.39 1013.95 1014.43 1014.79 1015.06 1015.27 1015.46 1015.66 1015.91 1016.19 1016.49 1016.77 1017.01 1017.19 1017.34 1017.46 1017.59 1017.77 1017.98 1018.22 1018.46 1018.65 1018.76 1018.77 1018.69 1018.56 1018.44 1018.40 1018.48 1018.70 1019.05 1019.48 1019.92 1020.32 1020.61 1020.78 1020.84 1020.83 1020.81
1011.66 1012.02 1012.47 1012.96 1013.45 1013.91 1014.30 1014.60 1014.84 1015.05 1015.25 1015.49 1015.77 1016.08 1016.41 1016.73 1017.00 1017.22 1017.40 1017.56 1017.72 1017.90 1018.11 1018.33 1018.53 1018.68 1018.75 1018.73 1018.64 1018.52 1018.43 1018.44 1018.57 1018.84 1019.24 1019.70 1020.16 1020.57 1020.86 1021.03 1021.08 1021.06 1021.02
1012.05 1012.39 1012.77 1013.18 1013.58 1013.94 1014.25 1014.50 1014.71 1014.90 1015.12 1015.38 1015.68 1016.02 1016.37 1016.70 1017.00 1017.24 1017.43 1017.60 1017.76 1017.93 1018.12 1018.30 1018.47 1018.59 1018.64 1018.61 1018.53 1018.45 1018.40 1018.45 1018.63 1018.95 1019.37 1019.86 1020.34 1020.76 1021.06 1021.24 1021.30 1021.29 1021.26
1012.37 1012.72 1013.08 1013.44 1013.77 1014.06 1014.31 1014.51 1014.69 1014.88 1015.10 1015.37 1015.69 1016.04 1016.40 1016.73 1017.03 1017.27 1017.45 1017.61 1017.75 1017.89 1018.05 1018.21 1018.35 1018.44 1018.49 1018.48 1018.43 1018.39 1018.39 1018.49 1018.70 1019.04 1019.48 1019.97 1020.46 1020.89 1021.21 1021.41 1021.51 1021.53 1021.51
1012.61 1012.99 1013.35 1013.69 1013.98 1014.24 1014.45 1014.62 1014.79 1014.97 1015.19 1015.46 1015.78 1016.13 1016.48 1016.81 1017.10 1017.32 1017.49 1017.63 1017.74 1017.85 1017.97 1018.10 1018.22 1018.32 1018.37 1018.39 1018.39 1018.40 1018.45 1018.58 1018.82 1019.16 1019.59 1020.06 1020.53 1020.96 1021.29 1021.53 1021.66 1021.73 1021.75
1012.73 1013.16 1013.55 1013.89 1014.18 1014.43 1014.62 1014.79 1014.95 1015.12 1015.34 1015.60 1015.91 1016.25 1016.60 1016.91 1017.19 1017.40 1017.56 1017.67 1017.76 1017.85 1017.94 1018.05 1018.16 1018.27 1018.35 1018.41 1018.47 1018.52 1018.61 1018.76 1018.99 1019.31 1019.70 1020.13 1020.57 1020.97 1021.31 1021.57 1021.75 1021.87 1021.94
1012.73 1013.21 1013.64 1014.01 1014.32 1014.57 1014.76 1014.93 1015.08 1015.25 1015.46 1015.71 1016.01 1016.34 1016.67 1016.99 1017.26 1017.47 1017.63 1017.74 1017.83 1017.91 1017.99 1018.09 1018.21 1018.33 1018.45 1018.56 1018.66 1018.76 1018.87 1019.03 1019.24 1019.51 1019.83 1020.19 1020.57 1020.93 1021.25 1021.53 1021.75 1021.91 1022.03
1012.61 1013.14 1013.60 1014.00 1014.34 1014.60 1014.81 1014.98 1015.14 1015.30 1015.50 1015.73 1016.02 1016.33 1016.67 1016.99 1017.27 1017.51 1017.69 1017.82 1017.93 1018.02 1018.11 1018.22 1018.35 1018.50 1018.65 1018.79 1018.93 1019.06 1019.19 1019.34 1019.51 1019.72 1019.96 1020.23 1020.53 1020.83 1021.12 1021.40 1021.64 1021.84 1022.01
1012.40 1012.95 1013.44 1013.87 1014.23 1014.52 1014.74 1014.93 1015.08 1015.24 1015.42 1015.64 1015.91 1016.21 1016.55 1016.88 1017.20 1017.48 1017.70 1017.89 1018.03 1018.15 1018.27 1018.40 1018.55 1018.71 1018.88 1019.05 1019.22 1019.37 1019.51 1019.64 1019.77 1019.90 1020.06 1020.24 1020.45 1020.67 1020.92 1021.17 1021.41 1021.65 1021.86
1012.12 1012.67 1013.17 1013.62 1014.00 1014.31 1014.56 1014.76 1014.93 1015.08 1015.25 1015.45 1015.70 1016.00 1016.33 1016.69 1017.04 1017.37 1017.65 1017.90 1018.10 1018.27 1018.42 1018.57 1018.73 1018.90 1019.09 1019.27 1019.45 1019.61 1019.75 1019.86 1019.95 1020.03 1020.11 1020.20 1020.31 1020.46 1020.64 1020.85 1021.09 1021.33 1021.57
1011.79 1012.33 1012.83 1013.28 1013.69 1014.03 1014.31 1014.54 1014.72 1014.88 1015.04 1015.23 1015.46 1015.74 1016.07 1016.43 1016.81 1017.19 1017.54 1017.84 1018.10 1018.32 1018.51 1018.68 1018.85 1019.02 1019.21 1019.39 1019.57 1019.74 1019.87 1019.97 1020.03 1020.07 1020.08 1020.09 1020.13 1020.19 1020.31 1020.47 1020.67 1020.92 1021.17
1011.45 1011.95 1012.44 1012.90 1013.33 1013.71 1014.04 1014.31 1014.52 1014.70 1014.87 1015.04 1015.25 1015.50 1015.81 1016.17 1016.57 1016.97 1017.36 1017.72 1018.02 1018.28 1018.50 1018.68 1018.85 1019.02 1019.19 1019.37 1019.55 1019.71 1019.85 1019.95 1020.00 1020.01 1019.98 1019.94 1019.91 1019.90 1019.94 1020.04 1020.20 1020.42 1020.67
1011.09 1011.56 1012.04 1012.51 1012.97 1013.40 1013.79 1014.12 1014.38 1014.59 1014.77 1014.93 1015.12 1015.34 1015.62 1015.95 1016.33 1016.74 1017.15 1017.53 1017.87 1018.15 1018.39 1018.58 1018.74 1018.90 1019.06 1019.22 1019.39 1019.56 1019.70 1019.81 1019.86 1019.87 1019.82 1019.75 1019.67 1019.60 1019.57 1019.60 1019.70 1019.88 1020.11
1010.74 1011.18 1011.65 1012.14 1012.64 1013.13 1013.58 1013.98 1014.31 1014.57 1014.77 1014.93 1015.09 1015.27 1015.50 1015.78 1016.13 1016.51 1016.90 1017.29 1017.64 1017.93 1018.18 1018.37 1018.53 1018.67 1018.81 1018.97 1019.13 1019.30 1019.45 1019.58 1019.66 1019.68 1019.64 1019.55 1019.43 1019.31 1019.22 1019.18 1019.21 1019.33 1019.52
1010.38 1010.81 1011.28 1011.79 1012.33 1012.87 1013.40 1013.87 1014.26 1014.58 1014.81 1014.98 1015.11 1015.25 1015.43 1015.65 1015.93 1016.27 1016.63 1017.00 1017.34 1017.64 1017.89 1018.09 1018.24 1018.38 1018.51 1018.66 1018.82 1018.99 1019.17 1019.32 1019.42 1019.47 1019.45 1019.36 1019.23 1019.07 1018.92 1018.81 1018.76 1018.80 1018.93
1010.04 1010.45 1010.92 1011.45 1012.02 1012.61 1013.19 1013.73 1014.19 1014.55 1014.81 1014.99 1015.11 1015.22 1015.33 1015.49 1015.72 1015.99 1016.32 1016.66 1016.99 1017.29 1017.55 1017.75 1017.92 1018.06 1018.19 1018.34 1018.50 1018.69 1018.88 1019.05 1019.19 1019.27 1019.27 1019.20 1019.06 1018.87 1018.67 1018.49 1018.36 1018.32 1018.37
1009.71 1010.11 1010.58 1011.10 1011.68 1012.30 1012.91 1013.49 1013.99 1014.39 1014.69 1014.88 1014.99 1015.07 1015.15 1015.26 1015.42 1015.65 1015.94 1016.26 1016.59 1016.90 1017.17 1017.40 1017.58 1017.73 1017.88 1018.03 1018.20 1018.40 1018.60 1018.80 1018.97 1019.08 1019.10 1019.05 1018.91 1018.71 1018.47 1018.23 1018.03 1017.90 1017.87
Thickness
5804 5800 5788 5786 5785 5784 5783 5781 5779 5777 5775 5774 5772 5771 5770 5769 5768 5767 5765 5764 5763 5762 5761 5760 5759 5758 5757 5756 5755 5754 5753 5752 5751 5750 5749 5748 5747 5745 5744 5743 5743 5741 5737
5809 5799 5788 5786 5784 5783 5781 5780 5778 5776 5774 5772 5771 5769 5768 5767 5766 5765 5764 5763 5762 5761 5760 5758 5757 5756 5755 5754 5753 5752 5751 5750 5749 5749 5748 5747 5745 5743 5742 5742 5742 5739 5736
5808 5798 5788 5785 5783 5781 5780 5778 5776 5774 5772 5771 5770 5768 5767 5766 5765 5764 5762 5761 5760 5759 5758 5757 5755 5754 5753 5752 5751 5750 5749 5748 5748 5748 5748 5749 5744 5741 5740 5739 5738 5736 5734
5807 5798 5791 5784 5782 5780 5778 5776 5774 5772 5771 5769 5768 5767 5765 5764 5763 5762 5761 5760 5759 5757 5756 5755 5753 5752 5751 5750 5748 5747 5746 5746 5746 5748 5750 5749 5744 5739 5738 5736 5735 5734 5732
5804 5798 5789 5783 5780 5778 5776 5774 5772 5771 5769 5767 5766 5765 5764 5763 5762 5760 5759 5758 5757 5756 5754 5753 5751 5750 5749 5747 5746 5745 5744 5744 5746 5749 5748 5746 5742 5737 5735 5734 5733 5732 5731
5801 5796 5787 5782 5779 5776 5774 5773 5771 5769 5767 5766 5764 5763 5762 5761 5760 5759 5758 5756 5755 5754 5752 5751 5749 5748 5747 5745 5744 5743 5742 5743 5747 5748 5746 5744 5740 5735 5734 5733 5732 5730 5729
5801 5796 5786 5780 5777 5775 5773 5771 5769 5768 5766 5764 5763 5762 5761 5760 5759 5757 5756 5754 5753 5752 5750 5749 5747 5746 5745 5743 5742 5741 5741 5743 5749 5747 5744 5742 5737 5733 5732 5731 5730 5729 5728
5800 5795 5784 5777 5775 5773 5771 5769 5768 5766 5765 5763 5762 5760 5759 5758 5757 5756 5754 5752 5751 5750 5748 5747 5745 5744 5743 5742 5740 5740 5740 5742 5746 5745 5742 5739 5733 5731 5730 5729 5728 5727 5726
5800 5794 5785 5779 5774 5771 5769 5767 5766 5764 5763 5762 5760 5759 5758 5756 5755 5754 5752 5751 5749 5748 5746 5745 5744 5743 5741 5740 5739 5738 5738 5741 5747 5744 5741 5736 5731 5729 5728 5727 5727 5726 5724
5797 5793 5786 5783 5777 5773 5769 5766 5764 5762 5761 5760 5758 5757 5756 5755 5753 5752 5751 5749 5748 5746 5745 5744 5742 5741 5740 5739 5738 5737 5737 5740 5746 5744 5740 5734 5729 5728 5727 5726 5725 5724 5723
5792 5790 5787 5784 5778 5776 5773 5767 5763 5761 5759 5758 5757 5756 5756 5758 5756 5753 5752 5748 5746 5745 5744 5742 5741 5740 5739 5738 5737 5737 5738 5744 5745 5743 5738 5731 5728 5727 5725 5724 5723 5722 5721
5786 5787 5786 5784 5778 5776 5773 5768 5765 5764 5761 5761 5760 5758 5758 5757 5757 5755 5749 5747 5745 5744 5743 5741 5740 5740 5740 5741 5739 5738 5742 5744 5744 5742 5736 5730 5727 5726 5724 5723 5722 5720 5719
5786 5786 5785 5780 5776 5775 5772 5769 5767 5766 5762 5761 5760 5758 5757 5756 5755 5754 5750 5747 5745 5744 5745 5742 5742 5745 5744 5743 5742 5742 5743 5744 5744 5742 5735 5729 5726 5725 5723 5721 5720 5719 5718
5786 5783 5782 5778 5774 5772 5770 5769 5766 5766 5763 5762 5758 5757 5756 5756 5755 5754 5751 5750 5748 5747 5746 5746 5744 5744 5743 5742 5742 5742 5742 5743 5742 5741 5733 5729 5726 5724 5723 5721 5720 5718 5717
5783 5781 5779 5775 5771 5768 5766 5766 5765 5764 5763 5761 5758 5756 5755 5755 5754 5752 5750 5749 5750 5748 5746 5745 5745 5743 5742 5741 5742 5741 5741 5741 5741 5739 5734 5729 5726 5724 5722 5721 5719 5718 5717
5784 5779 5776 5771 5768 5765 5763 5762 5763 5762 5759 5760 5757 5755 5753 5753 5752 5750 5748 5747 5748 5747 5747 5745 5745 5743 5743 5743 5742 5741 5741 5741 5738 5737 5736 5731 5727 5725 5723 5721 5720 5718 5717
5785 5781 5775 5770 5767 5763 5762 5760 5760 5760 5759 5758 5756 5753 5751 5751 5749 5749 5749 5747 5747 5746 5744 5743 5742 5743 5742 5743 5741 5741 5741 5739 5739 5736 5736 5734 5731 5727 5724 5722 5720 5719 5717
5787 5781 5776 5772 5767 5762 5760 5758 5759 5759 5758 5757 5755 5753 5750 5749 5747 5746 5747 5747 5745 5745 5745 5744 5744 5744 5743 5743 5741 5741 5741 5739 5738 5737 5737 5735 5734 5734 5728 5724 5722 5720 5718
5787 5781 5775 5771 5766 5762 5759 5756 5757 5756 5755 5755 5754 5752 5750 5748 5746 5745 5746 5746 5744 5745 5745 5746 5745 5745 5743 5741 5742 5741 5742 5741 5740 5740 5739 5738 5736 5734 5733 5727 5724 5722 5720
5787 5781 5775 5770 5766 5762 5759 5755 5754 5754 5753 5753 5752 5751 5749 5747 5745 5745 5745 5744 5745 5745 5744 5744 5742 5741 5742 5741 5743 5743 5742 5743 5742 5742 5741 5740 5738 5737 5736 5733 5729 5726 5723
5785 5779 5774 5769 5765 5760 5757 5754 5752 5751 5752 5751 5751 5750 5748 5747 5745 5743 5746 5744 5743 5744 5744 5744 5742 5740 5741 5742 5739 5737 5741 5744 5744 5743 5743 5742 5742 5739 5737 5735 5733 5731 5728
5784 5779 5774 5768 5764 5760 5758 5756 5754 5753 5752 5751 5751 5749 5747 5746 5745 5745 5744 5744 5744 5743 5742 5742 5740 5741 5742 5742 5738 5734 5733 5737 5739 5746 5744 5742 5743 5742 5740 5738 5735 5732 5731
5784 5779 5774 5768 5764 5760 5757 5753 5751 5749 5748 5748 5747 5747 5747 5746 5745 5745 5744 5744 5744 5744 5743 5741 5741 5739 5738 5741 5743 5738 5734 5731 5738 5743 5744 5745 5744 5743 5742 5742 5738 5736 5733
5785 5780 5774 5768 5764 5760 5756 5752 5749 5746 5745 5747 5747 5746 5746 5745 5745 5745 5744 5743 5743 5745 5744 5742 5743 5742 5739 5739 5740 5741 5742 5741 5734 5735 5741 5746 5744 5742 5743 5744 5743 5740 5737
5785 5779 5773 5767 5762 5759 5756 5752 5748 5747 5747 5746 5746 5745 5744 5744 5744 5744 5744 5744 5743 5744 5744 5743 5743 5742 5742 5741 5741 5741 5739 5738 5739 5734 5734 5740 5743 5745 5745 5744 5744 5743 5740
5783 5777 5771 5764 5760 5757 5754 5751 5748 5747 5746 5745 5744 5743 5742 5743 5743 5744 5744 5744 5743 5745 5744 5743 5742 5741 5742 5742 5742 5742 5740 5738 5738 5738 5735 5736 5739 5744 5746 5746 5745 5744 5742